Change the Weather History Date:

Friday, March 1, 2013

  Actual Average Record
Temperature  
Mean Temperature 40 °F -  
Max Temperature 42 °F 45 °F 62 °F (2004)
Min Temperature 37 °F 32 °F 12 °F (2015)
Degree Days  
Heating Degree Days 26    
Moisture  
Dew Point 30 °F    
Average Humidity 66    
Maximum Humidity 75    
Minimum Humidity 57    
Precipitation  
Precipitation 0.00 in - - ()
Sea Level Pressure  
Sea Level Pressure 29.76 in    
Wind  
Wind Speed 8 mph (WNW)    
Max Wind Speed 12 mph    
Max Gust Speed 18 mph    
Visibility 10 miles    
Events      
Averages and records for this station are not official NWS values.
T = Trace of Precipitation, MM = Missing Value Source: NWS Daily Summary

Daily Weather History Graph

Daily Weather History Graph

Search for Another Location

Airport or City:

Trip Planner

Search our weather history database for the weather conditions in past years. The results will help you decide how hot, cold, wet, or windy it might be!

Date:

Astronomy

Mar. 01, 2013 Rise Set
Actual Time 6:31 AM EST 5:52 PM EST
Civil Twilight 6:05 AM EST 6:19 PM EST
Nautical Twilight 5:34 AM EST 6:50 PM EST
Astronomical Twilight 5:03 AM EST 7:21 PM EST
Moon 10:20 PM EST (3/1) 8:19 AM EST (3/1)
Length of Visible Light 12h 14m
Length of Day
11h 20m
Waning Gibbous, 83% of the Moon is Illuminated
Mar 1
Waning Gibbous
Mar 4
Last Quarter
Mar 11
New
Mar 19
First Quarter
Mar 27
Full

Hourly Weather History & Observations

Time (EST) Temp. Windchill Dew Point Humidity Pressure Visibility Wind Dir Wind Speed Gust Speed Precip Events Conditions
12:35 AM 39.2 °F 33.6 °F 30.2 °F 70% 29.68 in 10.0 mi WNW 8.1 mph - N/A   Clear
12:55 AM 37.4 °F 31.4 °F 30.2 °F 75% 29.69 in 10.0 mi West 8.1 mph - N/A   Clear
1:15 AM 37.4 °F 31.4 °F 30.2 °F 75% 29.69 in 10.0 mi West 8.1 mph - N/A   Clear
1:35 AM 37.4 °F 31.4 °F 30.2 °F 75% 29.69 in 10.0 mi West 8.1 mph - N/A   Clear
1:55 AM 37.4 °F 30.8 °F 30.2 °F 75% 29.69 in 10.0 mi West 9.2 mph - N/A   Clear
2:15 AM 37.4 °F 30.3 °F 30.2 °F 75% 29.69 in 10.0 mi West 10.4 mph 16.1 mph N/A   Clear
2:35 AM 37.4 °F 30.8 °F 30.2 °F 75% 29.69 in 10.0 mi West 9.2 mph - N/A   Clear
2:55 AM 37.4 °F 30.8 °F 30.2 °F 75% 29.69 in 10.0 mi West 9.2 mph 17.3 mph N/A   Clear
3:15 AM 37.4 °F 30.3 °F 30.2 °F 75% 29.69 in 10.0 mi WNW 10.4 mph - N/A   Clear
3:35 AM 37.4 °F 30.3 °F 30.2 °F 75% 29.70 in 10.0 mi West 10.4 mph 18.4 mph N/A   Clear
4:15 AM 37.4 °F 30.8 °F 30.2 °F 75% 29.71 in 10.0 mi West 9.2 mph - N/A   Clear
5:15 AM 37.4 °F 32.1 °F 30.2 °F 75% 29.72 in 10.0 mi WNW 6.9 mph - N/A   Mostly Cloudy
5:35 AM 37.4 °F 32.1 °F 30.2 °F 75% 29.72 in 10.0 mi NW 6.9 mph - N/A   Overcast
5:55 AM 37.4 °F 32.1 °F 30.2 °F 75% 29.71 in 10.0 mi NW 6.9 mph - N/A   Mostly Cloudy
6:15 AM 37.4 °F 32.1 °F 30.2 °F 75% 29.72 in 10.0 mi NW 6.9 mph - N/A   Clear
6:35 AM 37.4 °F 32.1 °F 30.2 °F 75% 29.72 in 10.0 mi WNW 6.9 mph - N/A   Clear
7:15 AM 37.4 °F 32.1 °F 30.2 °F 75% 29.74 in 10.0 mi WNW 6.9 mph - N/A   Clear
7:35 AM 39.2 °F 34.2 °F 30.2 °F 70% 29.75 in 10.0 mi WNW 6.9 mph - N/A   Clear
7:55 AM 39.2 °F 34.2 °F 30.2 °F 70% 29.76 in 10.0 mi WNW 6.9 mph - N/A   Clear
8:15 AM 39.2 °F 33.0 °F 30.2 °F 70% 29.76 in 10.0 mi WNW 9.2 mph - N/A   Clear
8:35 AM 41.0 °F 35.8 °F 30.2 °F 65% 29.77 in 10.0 mi WNW 8.1 mph - N/A   Partly Cloudy
8:55 AM 41.0 °F 35.8 °F 32.0 °F 70% 29.77 in 10.0 mi WNW 8.1 mph - N/A   Clear
9:15 AM 41.0 °F 35.8 °F 32.0 °F 70% 29.77 in 10.0 mi NW 8.1 mph - N/A   Clear
9:35 AM 42.8 °F 37.0 °F 30.2 °F 61% 29.76 in 10.0 mi WNW 10.4 mph 16.1 mph N/A   Clear
9:55 AM 42.8 °F 37.0 °F 32.0 °F 66% 29.76 in 10.0 mi NW 10.4 mph 16.1 mph N/A   Partly Cloudy
10:15 AM 42.8 °F 37.0 °F 30.2 °F 61% 29.76 in 10.0 mi WNW 10.4 mph 16.1 mph N/A   Mostly Cloudy
10:35 AM 42.8 °F 37.0 °F 30.2 °F 61% 29.76 in 10.0 mi WNW 10.4 mph 18.4 mph N/A   Overcast
10:55 AM 42.8 °F 37.0 °F 30.2 °F 61% 29.76 in 10.0 mi WNW 10.4 mph - N/A   Overcast
11:15 AM 42.8 °F 38.0 °F 30.2 °F 61% 29.77 in 10.0 mi WNW 8.1 mph - N/A   Overcast
11:35 AM 42.8 °F 36.6 °F 30.2 °F 61% 29.77 in 10.0 mi West 11.5 mph 16.1 mph N/A   Overcast
12:15 PM 42.8 °F 40.1 °F 30.2 °F 61% 29.77 in 10.0 mi NW 4.6 mph - N/A   Overcast
12:35 PM 42.8 °F 38.0 °F 30.2 °F 61% 29.76 in 10.0 mi NNW 8.1 mph - N/A   Overcast
12:55 PM 42.8 °F 37.5 °F 28.4 °F 57% 29.76 in 10.0 mi NW 9.2 mph - N/A   Overcast
1:15 PM 42.8 °F 38.6 °F 28.4 °F 57% 29.76 in 10.0 mi NW 6.9 mph - N/A   Overcast
1:35 PM 42.8 °F 38.0 °F 28.4 °F 57% 29.76 in 10.0 mi WNW 8.1 mph - N/A   Overcast
2:15 PM 42.8 °F 38.0 °F 30.2 °F 61% 29.76 in 10.0 mi WNW 8.1 mph - N/A   Overcast
2:35 PM 42.8 °F 37.0 °F 28.4 °F 57% 29.75 in 10.0 mi West 10.4 mph - N/A   Overcast
2:55 PM 42.8 °F 38.0 °F 30.2 °F 61% 29.75 in 10.0 mi WNW 8.1 mph - N/A   Overcast
3:15 PM 42.8 °F 38.0 °F 30.2 °F 61% 29.75 in 10.0 mi WNW 8.1 mph - N/A   Overcast
3:35 PM 42.8 °F 39.3 °F 28.4 °F 57% 29.76 in 10.0 mi WNW 5.8 mph - N/A   Overcast
3:55 PM 42.8 °F 38.6 °F 30.2 °F 61% 29.76 in 10.0 mi WNW 6.9 mph - N/A   Overcast
4:15 PM 42.8 °F 40.1 °F 30.2 °F 61% 29.76 in 10.0 mi WNW 4.6 mph - N/A   Overcast
4:35 PM 42.8 °F 38.6 °F 30.2 °F 61% 29.76 in 10.0 mi WNW 6.9 mph - N/A   Overcast
5:15 PM 42.8 °F 37.5 °F 28.4 °F 57% 29.77 in 10.0 mi WNW 9.2 mph - N/A   Overcast
5:35 PM 42.8 °F 38.0 °F 28.4 °F 57% 29.78 in 10.0 mi WNW 8.1 mph - N/A   Overcast
5:55 PM 42.8 °F 38.6 °F 30.2 °F 61% 29.78 in 10.0 mi WNW 6.9 mph - N/A   Overcast
6:15 PM 41.0 °F 36.4 °F 30.2 °F 65% 29.79 in 10.0 mi WNW 6.9 mph - N/A   Overcast
6:35 PM 41.0 °F 35.8 °F 30.2 °F 65% 29.79 in 10.0 mi WNW 8.1 mph - N/A   Overcast
6:55 PM 41.0 °F 36.4 °F 30.2 °F 65% 29.79 in 10.0 mi WNW 6.9 mph - N/A   Overcast
7:15 PM 41.0 °F 35.8 °F 30.2 °F 65% 29.80 in 10.0 mi WNW 8.1 mph - N/A   Overcast
7:35 PM 41.0 °F 35.8 °F 30.2 °F 65% 29.80 in 10.0 mi WNW 8.1 mph - N/A   Overcast
7:55 PM 41.0 °F 35.8 °F 28.4 °F 61% 29.80 in 10.0 mi WNW 8.1 mph - N/A   Overcast
8:15 PM 41.0 °F 37.1 °F 28.4 °F 61% 29.80 in 10.0 mi WNW 5.8 mph - N/A   Overcast
8:35 PM 41.0 °F 35.8 °F 30.2 °F 65% 29.81 in 10.0 mi WNW 8.1 mph - N/A   Overcast
8:55 PM 39.2 °F 33.6 °F 30.2 °F 70% 29.82 in 10.0 mi WNW 8.1 mph - N/A   Overcast
9:15 PM 39.2 °F 33.6 °F 30.2 °F 70% 29.82 in 10.0 mi WNW 8.1 mph - N/A   Overcast
9:35 PM 39.2 °F 34.2 °F 30.2 °F 70% 29.82 in 10.0 mi West 6.9 mph - N/A   Overcast
9:55 PM 39.2 °F 35.0 °F 30.2 °F 70% 29.83 in 10.0 mi WNW 5.8 mph - N/A   Overcast
10:15 PM 39.2 °F 35.9 °F 28.4 °F 65% 29.82 in 10.0 mi WNW 4.6 mph - N/A   Overcast
10:35 PM 39.2 °F 35.0 °F 28.4 °F 65% 29.83 in 10.0 mi NW 5.8 mph - N/A   Overcast
10:55 PM 39.2 °F 35.0 °F 28.4 °F 65% 29.83 in 10.0 mi NW 5.8 mph - N/A   Overcast
11:15 PM 39.2 °F 35.9 °F 26.6 °F 61% 29.82 in 10.0 mi NNW 4.6 mph - N/A   Overcast
11:35 PM 39.2 °F 35.9 °F 26.6 °F 61% 29.82 in 10.0 mi NNW 4.6 mph - N/A   Overcast
11:55 PM 39.2 °F 34.2 °F 26.6 °F 61% 29.82 in 10.0 mi NNW 6.9 mph - N/A   Overcast